• Join FlightAware (Why Join?)
  • Login
  • US Flag 
09:21AM EDT


 

Airport Tracker/Info


-or-


 

Live Flight TrackerFlight Track Log ✈ SKW7363 ✈ 25-Aug-2013 ✈ KCOD - KSLC

Flight Track Log - Related Links

Times and Time Zones

All times are in EDT time to prevent confusion due to time zone crossing. See the SKW7363 flight status page for this flight to view local times or setup timezone preferences in your user account.

Time Position Orientation Groundspeed Altitude Reporting Facility
EDT Latitude Longitude Course Direction KTS MPH feet Rate Location/Type
09:44PM 44.5406 -108.9881 104° East 193 222 6,200  Level Salt Lake Center
09:45PM 44.5081 -108.9328 129° Southeast 236 272 8,200 2,220 Climbing Salt Lake Center
09:46PM 44.4514 -108.9022 159° South 225 259 10,800 2,220 Climbing Salt Lake Center
09:47PM 44.0410 -109.4272 159° South  Level Estimated
09:47PM 44.3886 -108.8850 169° South 235 270 12,800  Level Salt Lake Center
09:48PM 43.9610 -109.4938 157° South  Level Estimated
09:48PM 44.3242 -108.9544 218° Southwest 284 327 13,500  Level Salt Lake Center
09:49PM 43.9378 -109.3683 104° East  Level FlightAware Approximate
09:49PM 44.2547 -109.0444 223° Southwest 327 376 14,600  Level Salt Lake Center
09:50PM 44.1772 -109.1386 221° Southwest 359 413 16,200 1,560 Climbing Salt Lake Center
09:51PM 44.0867 -109.2544 223° Southwest 368 423 17,800 1,560 Climbing Salt Lake Center
09:52PM 44.0106 -109.3519 223° Southwest 372 428 19,500 1,200 Climbing Salt Lake Center
09:53PM 43.9336 -109.4469 222° Southwest 371 427 20,300 900 Climbing Salt Lake Center
09:54PM 43.8556 -109.5447 222° Southwest 370 426 21,400 960 Climbing Salt Lake Center
09:55PM 43.7811 -109.6361 222° Southwest 372 428 22,300 1,020 Climbing Salt Lake Center
09:56PM 43.6944 -109.7456 222° Southwest 377 434 23,500 1,020 Climbing Salt Lake Center
09:57PM 43.6200 -109.8392 222° Southwest 378 435 24,500 1,020 Climbing Salt Lake Center
09:58PM 43.5336 -109.9450 222° Southwest 374 430 25,600 720 Climbing Salt Lake Center
10:00PM 43.4636 -110.0306 222° Southwest 373 429 26,000 180 Climbing Salt Lake Center
10:01PM 43.3731 -110.1411 222° Southwest 388 447 26,000  Level Salt Lake Center
10:02PM 43.2922 -110.2403 222° Southwest 403 464 26,000  Level Salt Lake Center
10:03PM 43.2028 -110.3519 222° Southwest 420 483 26,000  Level Salt Lake Center
10:04PM 43.1056 -110.4689 221° Southwest 418 481 26,000  Level Salt Lake Center
10:05PM 43.0225 -110.5697 222° Southwest 416 479 26,000  Level Salt Lake Center
10:06PM 42.9389 -110.6678 221° Southwest 414 476 26,000  Level Salt Lake Center
10:07PM 42.8419 -110.7847 222° Southwest 415 478 26,000  Level Salt Lake Center
10:08PM 42.7589 -110.8839 221° Southwest 413 475 26,000  Level Salt Lake Center
10:09PM 42.6750 -110.9844 221° Southwest 415 478 26,000  Level Salt Lake Center
10:10PM 42.5708 -111.1067 221° Southwest 413 475 26,000  Level Salt Lake Center
10:11PM 42.4847 -111.2089 221° Southwest 413 475 26,000  Level Salt Lake Center
10:12PM 42.3986 -111.3086 221° Southwest 410 472 26,000  Level Salt Lake Center
10:13PM 42.3133 -111.4075 221° Southwest 406 467 26,000  Level Salt Lake Center
10:14PM 42.2272 -111.5083 221° Southwest 409 471 26,000  Level Salt Lake Center
10:15PM 42.1419 -111.6075 221° Southwest 408 470 26,000  Level Salt Lake Center
10:16PM 42.0564 -111.7067 221° Southwest 407 468 26,000 -360 Level Salt Lake Center
10:17PM 41.9536 -111.8244 220° Southwest 405 466 25,300 -1,860 Descending Salt Lake Center
10:18PM 41.8650 -111.9267 221° Southwest 417 480 22,200 -3,000 Descending Salt Lake Center
10:19PM 41.7700 -112.0114 214° Southwest 419 482 19,200 -2,940 Descending Salt Lake Center
10:20PM 41.6986 -112.0164 183° South 422 486 17,500 -3,060 Descending Salt Lake Center
10:21PM 41.5719 -112.0400 188° South 394 453 14,000 -2,700 Descending Salt Lake Center
10:22PM 41.4886 -112.0542 187° South 357 411 12,100 -1,080 Descending Salt Lake Center
10:23PM 41.4056 -112.0597 183° South 296 341 12,000 -360 Descending Salt Lake Center
10:24PM 41.3167 -112.0558 178° South 296 341 11,400 -900 Descending Salt Lake Center
10:24PM 41.2692 -112.0517 176° South 331 381 10,700 -1,260 Descending Salt Lake Center
10:25PM 41.2108 -112.0433 174° South 363 418 10,000 -480 Descending Salt Lake Center
10:26PM 41.1250 -112.0328 175° South 330 380 10,000 -180 Level Salt Lake Center
10:26PM 41.0883 -112.0294 176° South 296 341 9,800 -1,380 Descending Salt Lake Center
10:27PM 41.0183 -112.0233 176° South 260 299 7,900 -1,620 Descending Salt Lake Center
10:28PM 40.9378 -112.0150 176° South 245 282 6,500 -1,200 Descending Salt Lake Center
10:29PM 40.8844 -112.0086 175° South 196 226 5,500 -780 Descending Salt Lake Center
10:30PM 40.8472 -112.0039 175° South 134 154 4,900 -540 Descending Salt Lake Center
10:31PM 40.8114 -111.9994 175° South 129 148 4,400 -540 Descending Salt Lake Center